Regional Weather Roundup
Issued by NWS

Home | Current Version | Previous Version | Graphics & Text | Print | Product List | Glossary On
Versions: 1 2 3 4 5 6 7 8 9 10 11 12 13 14 15 16 17 18 19 20 21 22 23 24 25 26 27 28 29 30 31 32 33 34 35 36 37 38 39 40 41 42 43 44 45 46 47 48 49 50
471
ASUS43 KDMX 270801
RWRIA

WEATHER ROUNDUP FOR IOWA
NATIONAL WEATHER SERVICE DES MOINES IA
300 AM CDT MON MAR 27 2017

NOTE: "FAIR" INDICATES FEW OR NO CLOUDS BELOW 12,000 FEET WITH NO
SIGNIFICANT WEATHER AND/OR OBSTRUCTIONS TO VISIBILITY.

* - THESE STATIONS ARE NOT NWS STATIONS...THUS NOT UNDER NWS
QUALITY CONTROL.  THEY ALSO DO NOT REPORT WEATHER SUCH
AS PRECIPITATION OR FOG.

IAZ001>003-012>014-020>022-031>034-043>046-270900-
   NORTHWEST IOWA

CITY           SKY/WX    TMP DP  RH WIND       PRES   REMARKS
CARROLL *      CLEAR     37  37 100 NW6       29.93R FOG     WCI  33
CHEROKEE *     CLOUDY    41  40  97 N3        29.96R
LE MARS *      CLOUDY    43  39  87 CALM      29.97R
ORANGE CITY *  CLOUDY    41  39  93 N5        29.95S
SHELDON *      CLOUDY    39  39 100 NW6       29.94R WCI  35
SIOUX CITY     CLOUDY    44  40  85 N6        29.96R
SPENCER        CLOUDY    38  37  97 NW5       29.95R WCI  34
STORM LAKE *   CLOUDY    39  39 100 NW5       29.94R
$$

IAZ055>058-069>071-079>083-090>094-270900-
   SOUTHWEST IOWA

CITY           SKY/WX    TMP DP  RH WIND       PRES   REMARKS
ATLANTIC *     CLOUDY    45  43  93 NE7       29.92R
AUDUBON *      CLOUDY    43  39  87 N3        29.93S FOG
CLARINDA *     CLOUDY    46  45  93 NE5       29.94F
COUNCIL BLFS * CLOUDY    45  45 100 N6        29.92R
CRESTON *      CLOUDY    43  43 100 N6        29.93S FOG
HARLAN  *      CLOUDY    45  45 100 NE9       29.96R
LAMONI         CLOUDY    45  43  93 E3        29.91S
RED OAK *      CLOUDY    46  43  87 NE5       29.94R
SHENANDOAH *   CLOUDY    46  43  87 NE6       29.93F
$$

IAZ047>049-059>061-072>074-084-270900-
   CENTRAL IOWA

CITY           SKY/WX    TMP DP  RH WIND       PRES   REMARKS
AMES           CLOUDY    43  42  97 N3        29.92S
ANKENY *       CLOUDY    43  43 100 CALM      29.94R FOG
BOONE *        CLOUDY    41  41 100 N6        29.91S
CHARITON *     CLOUDY    45  45 100 CALM      29.91F FOG
DES MOINES     CLOUDY    46  44  93 CALM      29.92F
GRINNELL*      CLOUDY    43  43  98 CALM      29.93F FOG
KNOXVILLE *    LGT RAIN  45  45 100 N6        29.90F
MARSHALLTOWN   CLOUDY    43  43 100 NW3       29.91F FOG
NEWTON *       FOG       43  43 100 CALM      29.92S VSB 1/2
PELLA *        CLOUDY    44  44  99 NW3       29.93F FOG
PERRY *          N/A     41  40  96 NW3       29.93R FOG
$$

IAZ004>006-015-016-023>025-035-036-270900-
   NORTH CENTRAL IOWA

CITY           SKY/WX    TMP DP  RH WIND       PRES   REMARKS
ALGONA *       CLOUDY    39  39 100 CALM      29.93R FOG
CLARION *      CLOUDY    39  39 100 NW5       29.93R
ESTHERVILLE    CLOUDY    38  38 100 NW8       29.93R WCI  32
FORT DODGE *   CLOUDY    39  36  87 CALM      29.93F
MASON CITY     CLOUDY    39  39 100 NW3       29.93R
FOREST CITY *  CLOUDY    37  37 100 W3        29.92R
WEBSTER CITY * CLOUDY    39  39 100 NW7       29.91F WCI  34
IOWA FALLS *   CLOUDY    42  41  96 CALM      29.93R FOG
$$

IAZ007>011-017>019-026>030-037>042-050>054-066-270900-
   NORTHEAST IOWA

CITY           SKY/WX    TMP DP  RH WIND       PRES   REMARKS
CEDAR RAPIDS   CLOUDY    44  44 100 SW3       29.91R
CHARLES CITY * CLOUDY    41  41 100 N5        29.91S FOG
CLINTON *      CLOUDY    46  46 100 SW7       29.93R FOG
DECORAH *      CLOUDY    39  39 100 N5        29.88F
DUBUQUE        CLOUDY    43  42  97 CALM      29.90R FOG
MONTICELLO *   CLOUDY    45  45 100 CALM      29.91R
OELWEIN *      CLOUDY    41  41 100 NW5       29.92R
WATERLOO       CLOUDY    42  40  92 NW3       29.92R
$$

IAZ064-065-067-068-078-270900-
   EAST CENTRAL IOWA

CITY           SKY/WX    TMP DP  RH WIND       PRES   REMARKS
DAVENPORT      CLOUDY    47  45  93 W8        29.93R FOG
IOWA CITY      CLOUDY    47  45  93 CALM      29.93S
MUSCATINE *    CLOUDY    46  46 100 CALM      29.93F FOG
QUAD CITIES    CLOUDY    48  45  89 W7        29.93R
$$

IAZ062-063-075>077-085>089-095>099-270900-
   SOUTHEAST IOWA

CITY           SKY/WX    TMP DP  RH WIND       PRES   REMARKS
BURLINGTON     CLOUDY    47  47 100 CALM      29.92F FOG
FAIRFIELD *    CLOUDY    46  45  93 CALM      29.93S FOG
FORT MADISON * CLOUDY    48  46  93 CALM      29.93F FOG
KEOKUK *       CLOUDY    48  45  87 CALM      29.91F
OSKALOOSA *    CLOUDY    44  43  97 CALM      29.92F FOG
OTTUMWA        CLOUDY    46  45  96 CALM      29.92F FOG
WASHINGTON *   CLOUDY    46  45  93 CALM      29.94R FOG
$$

ABBREVIATIONS USED IN REMARKS
   TC - TEMPERATURES IN CELSIUS
  WCI - WIND CHILL INDEX
   HX - HEAT INDEX
  VSB - VISIBILITY
$$





USA.gov is the U.S. government's official web portal to all federal, state and local government web resources and services.